TimeEDT,TemperatureF,Dew PointF,Humidity,Sea Level PressureIn,VisibilityMPH,Wind Direction,Wind SpeedMPH,Gust SpeedMPH,PrecipitationIn,Events,Conditions,WindDirDegrees,DateUTC
12:08 AM,48.2,48.2,100,30.19,4.0,Calm,Calm,-,N/A,,Clear,0,2013-10-10 04:08:00
12:53 AM,48.0,48.0,100,30.19,10.0,Calm,Calm,-,N/A,,Clear,0,2013-10-10 04:53:00
1:12 AM,46.4,46.4,100,30.18,1.2,Calm,Calm,-,N/A,,Clear,0,2013-10-10 05:12:00
1:20 AM,44.6,44.6,100,30.18,0.5,Calm,Calm,-,N/A,Fog,Fog,0,2013-10-10 05:20:00
1:26 AM,46.4,46.4,100,30.18,2.0,Calm,Calm,-,N/A,,Clear,0,2013-10-10 05:26:00
1:44 AM,46.4,44.6,93,30.18,6.0,Calm,Calm,-,N/A,,Clear,0,2013-10-10 05:44:00
1:53 AM,46.0,46.0,100,30.17,6.0,NE,3.5,-,N/A,,Clear,50,2013-10-10 05:53:00
2:26 AM,46.4,44.6,93,30.18,1.8,Calm,Calm,-,N/A,,Clear,0,2013-10-10 06:26:00
2:33 AM,44.6,44.6,100,30.18,0.8,Calm,Calm,-,N/A,,Mist,0,2013-10-10 06:33:00
2:53 AM,45.0,45.0,100,30.18,1.0,Calm,Calm,-,N/A,,Mist,0,2013-10-10 06:53:00
3:00 AM,44.6,44.6,100,30.18,0.5,Calm,Calm,-,N/A,Fog,Fog,0,2013-10-10 07:00:00
3:15 AM,44.6,44.6,100,30.18,1.8,Calm,Calm,-,N/A,,Clear,0,2013-10-10 07:15:00
3:27 AM,44.6,44.6,100,30.18,1.8,Calm,Calm,-,N/A,,Partly Cloudy,0,2013-10-10 07:27:00
3:34 AM,44.6,42.8,93,30.18,0.8,Calm,Calm,-,N/A,,Mist,0,2013-10-10 07:34:00
3:46 AM,42.8,42.8,100,30.18,1.2,ENE,3.5,-,N/A,,Partly Cloudy,60,2013-10-10 07:46:00
3:53 AM,43.0,43.0,100,30.17,1.0,NE,3.5,-,N/A,,Mist,50,2013-10-10 07:53:00
3:57 AM,42.8,42.8,100,30.18,0.2,NE,3.5,-,N/A,Fog,Fog,50,2013-10-10 07:57:00
4:24 AM,42.8,42.8,100,30.18,0.5,NE,3.5,-,N/A,Fog,Fog,50,2013-10-10 08:24:00
4:42 AM,42.8,42.8,100,30.18,0.5,NE,3.5,-,N/A,Fog,Fog,50,2013-10-10 08:42:00
4:53 AM,42.1,42.1,100,30.18,1.5,Calm,Calm,-,N/A,,Clear,0,2013-10-10 08:53:00
4:55 AM,42.8,42.8,100,30.18,2.0,Calm,Calm,-,N/A,,Partly Cloudy,0,2013-10-10 08:55:00
5:00 AM,42.8,42.8,100,30.18,1.0,ENE,3.5,-,N/A,,Mist,60,2013-10-10 09:00:00
5:06 AM,42.8,42.8,100,30.19,0.2,NE,4.6,-,N/A,Fog,Fog,50,2013-10-10 09:06:00
5:53 AM,43.0,43.0,100,30.19,0.2,NNE,3.5,-,0.01,Fog,Fog,30,2013-10-10 09:53:00
6:48 AM,41.0,41.0,100,30.20,0.5,ENE,3.5,-,N/A,Fog,Fog,70,2013-10-10 10:48:00
6:53 AM,41.0,41.0,100,30.20,0.2,NE,3.5,-,N/A,Fog,Patches of Fog,50,2013-10-10 10:53:00
6:55 AM,41.0,41.0,100,30.20,0.5,ENE,3.5,-,N/A,Fog,Patches of Fog,60,2013-10-10 10:55:00
7:53 AM,41.0,41.0,100,30.22,0.8,NNE,3.5,-,N/A,Fog,Patches of Fog,30,2013-10-10 11:53:00
8:00 AM,41.0,41.0,100,30.21,1.0,NNE,3.5,-,N/A,Fog,Patches of Fog,30,2013-10-10 12:00:00
8:53 AM,43.0,43.0,100,30.22,2.0,Calm,Calm,-,N/A,Fog,Patches of Fog,0,2013-10-10 12:53:00
9:12 AM,44.6,44.6,100,30.21,5.0,Calm,Calm,-,N/A,Fog,Patches of Fog,0,2013-10-10 13:12:00
9:53 AM,50.0,48.0,93,30.22,10.0,Calm,Calm,-,N/A,,Clear,0,2013-10-10 13:53:00
10:53 AM,57.9,48.9,72,30.22,10.0,Calm,Calm,-,N/A,,Clear,0,2013-10-10 14:53:00
11:53 AM,64.0,48.0,56,30.21,10.0,Calm,Calm,-,N/A,,Clear,0,2013-10-10 15:53:00
12:53 PM,69.1,43.0,39,30.19,10.0,East,4.6,-,N/A,,Clear,100,2013-10-10 16:53:00
1:53 PM,69.1,44.1,40,30.17,10.0,Variable,3.5,-,N/A,,Clear,0,2013-10-10 17:53:00
2:53 PM,71.1,44.1,38,30.14,10.0,SSW,3.5,-,N/A,,Clear,210,2013-10-10 18:53:00
3:53 PM,72.0,43.0,35,30.14,10.0,Calm,Calm,-,N/A,,Clear,0,2013-10-10 19:53:00
4:53 PM,72.0,44.1,37,30.12,10.0,Calm,Calm,-,N/A,,Clear,0,2013-10-10 20:53:00
5:53 PM,72.0,45.0,38,30.11,10.0,East,3.5,-,N/A,,Clear,100,2013-10-10 21:53:00
6:53 PM,64.0,54.0,70,30.11,10.0,Calm,Calm,-,N/A,,Clear,0,2013-10-10 22:53:00
7:53 PM,57.0,51.1,81,30.11,10.0,Calm,Calm,-,N/A,,Clear,0,2013-10-10 23:53:00
8:53 PM,53.1,51.1,93,30.10,10.0,Calm,Calm,-,N/A,,Clear,0,2013-10-11 00:53:00
9:53 PM,53.1,50.0,89,30.10,10.0,Calm,Calm,-,N/A,,Clear,0,2013-10-11 01:53:00
10:53 PM,51.1,50.0,96,30.10,10.0,Calm,Calm,-,N/A,,Clear,0,2013-10-11 02:53:00
11:53 PM,50.0,48.9,96,30.10,10.0,Calm,Calm,-,N/A,,Clear,0,2013-10-11 03:53:00